SCP
-0 -0 -0 -0 -0 -0 0 0 0 0 0 0 0 0 0 0 0 0 0 0 0 0 0 0 0 0 0 0 0 0 0 0 0 0 0 0 0 0 0 0 0 0 0 0
-0 -0 -0 -0 -0 0 0 0 0 0 0 0 0 0 0 0 0 0 0 0 0 0 0 0 0 0 0 0 0 0 0 0 0 0 0 0 0 0 0 0 0 0 0 0
-0 -0 -0 -0 -0 0 0 0 0 0 0 0 0 0 0 0 0 0 0 0 0 0 0 0 0 0 0 0 0 0 0 0 0 0 0 0 0 0 0 0 0 0 0 0
-0 -0 -0 -0 -0 0 0 0 0 0 0 0 0 0 0 0 0 0 0 0 0 0 0 0 0 0 0 0 0 0 0 0 0 0 0 0 0 0 0 0 0 0 0 0
-0 -0 -0 -0 -0 0 0 0 0 0 0 0 0 0 0 0 0 0 0 0 0 0 0 0 0 0 0 0 0 0 0 0 0 0 0 0 0 0 0 0 0 0 0 0
-0 -0 -0 -0 -0 0 0 0 0 0 0 0 0 0 0 0 0 0 0 0 0 0 0 0 0 0 0 0 0 0 0 0 0 0 0 0 0 0 0 0 0 0 0 0
-0 -0 -0 -0 -0 0 0 0 0 0 0 0 0 0 0 0 0 0 0 0 0 0 0 0 0 0 0 0 0 0 0 0 0 0 0 0 0 0 0 0 0 0 0 0
-0 -0 -0 -0 -0 -0 0 0 0 0 0 0 0 0 0 0 0 0 0 0 0 0 0 0 0 0 0 0 0 0 0 0 0 0 0 0 0 0 0 0 0 0 0 0
-0 -0 -0 -0 -0 -0 0 0 0 0 0 0 0 0 0 0 0 0 0 0 0 0 0 0 0 0 0 0 0 0 0 0 0 0 0 0 0 0 0 0 0 0 0 0
0 -0 -0 -0 -0 -0 0 0 0 0 0 0 0 0 0 0 0 0 0 0 0 0 0 0 0 0 0 0 0 0 0 0 0 0 0 0 0 0 0 0 0 0 0 0
0 0 -0 -0 -0 -0 0 0 0 0 0 0 0 0 0 0 0 0 0 0 0 0 0 0 0 0 0 0 0 0 0 0 0 0 0 0 0 0 0 0 0 0 0 0
0 0 0 0 -0 -0 0 0 0 0 0 0 0 0 0 0 0 0 0 0 0 0 0 0 0 0 0 0 0 0 0 0 0 0 0 0 0 0 0 0 0 0 0 0
0 0 0 0 0 0 0 0 0 0 0 0 0 0 0 0 0 0 0 0 0 0 0 0 0 0 0 0 0 0 0 0 0 0 0 0 0 0 0 0 0 0 0 0
0 0 0 0 0 0 0 0 0 0 0 0 0 0 0 0 0 0 0 0 0 0 0 0 0 0 0 0 0 0 0 0 0 0 0 0 0 0 0 0 0 0 0 0
0 0 0 0 0 0 0 0 0 0 0 0 0 0 0 0 0 0 0 0 0 0 0 0 0 0 0 0 0 0 0 0 0 0 0 0 0 0 0 0 0 0 0 0
0 0 0 0 0 0 0 0 0 0 0 0 0 0 0 0 0 0 0 0 0 0 0 0 0 0 0 0 0 0 0 0 0 0 0 0 0 0 0 0 0 0 0 0
0 0 0 0 0 0 0 0 0 0 0 0 0 0 0 0 0 0 0 0 0 0 0 0 0 0 0 0 0 0 0 0 0 0 0 0 0 0 0 0 0 0 0 0
0 0 0 0 0 0 0 0 0 0 0 0 0 0 0 0 0 0 0 0 0 0 0 0 0 0 0 0 0 0 0 0 0 0 0 0 0 0 0 0 0 0 0 0
0 0 0 0 0 0 0 0 0 0 0 0 0 0 0 0 0 0 0 0 0 0 0 0 0 0 0 0 0 0 0 0 0 0 0 0 0 0 0 0 0 0 0 0
0 0 0 0 0 0 0 0 0 0 0 0 0 0 0 0 0 0 0 0 0 0 0 0 0 0 0 0 0 0 0 0 0 0 0 0 0 0 0 0 0 0 0 0
0 0 0 0 0 0 0 0 0 0 0 0 0 0 0 0 0 0 0 0 0 0 0 0 0 0 0 0 0 0 0 0 0 0 0 0 0 0 0 0 0 0 0 0
0 0 0 0 0 0 0 0 0 0 0 0 0 0 0 0 0 0 0 0 0 0 0 0 0 0 0 0 0 0 0 0 0 0 0 0 0 0 0 0 0 0 0 0
0 0 0 0 0 0 0 0 0 0 0 0 0 0 0 0 0 0 0 0 0 0 0 0 0 0 0 0 0 0 0 0 0 0 0 0 0 0 0 0 0 0 0 0
0 0 0 0 0 0 0 0 0 0 0 0 0 0 0 0 0 0 0 0 0 0 0 0 0 0 0 -0 0 0 0 0 0 0 0 0 0 0 0 0 0 0 0 0
0 0 0 0 0 0 0 0 0 0 0 0 0 0 0 0 0 0 0 0 0 0 0 0 0 0 0 -0 -0 0 0 0 0 0 0 0 0 0 0 0 0 0 0 0
0 0 0 0 0 0 0 0 0 0 0 0 0 0 0 0 0 0 0 0 0 0 0 -0 0 0 -0 -0 -0 0 0 0 0 0 0 0 0 0 0 0 0 0 0 0
0 0 0 0 0 0 0 0 0 0 0 0 0 0 0 0 0 0 0 0 0 0 -0 0 0 0 -0 -0 -0 0 0 0 0 0 0 0 0 0 0 0 0 0 0 0
Wind_Speed_500mb
53 47 47 46 37 20 6 3 7 30 27 7 4 5 9 8 11 2 5 4 7 6 5 6 2 6 5 18 11 10 1 10 6 4 9 5 4 7 8 9 7 1 5 11
53 44 46 45 34 21 4 5 11 29 20 5 4 9 8 9 7 8 8 6 8 9 6 8 6 5 10 17 9 9 9 3 5 9 12 7 9 1 10 11 6 6 7 10
51 42 45 44 32 22 5 3 5 8 9 3 9 4 9 6 9 4 9 7 7 8 10 12 6 8 9 15 11 16 10 6 10 12 9 6 5 3 6 10 7 5 10 13
47 41 42 42 32 19 6 5 2 6 6 6 4 1 5 6 6 4 17 8 10 7 6 6 6 5 10 13 21 10 9 6 4 5 4 1 4 6 8 10 10 12 12 11
44 40 41 39 35 15 15 6 4 4 5 0 4 6 6 2 3 5 5 12 6 4 11 5 8 3 2 5 11 7 6 5 5 4 5 7 7 13 13 7 5 8 6 2
41 37 38 39 34 26 11 9 7 2 7 4 6 3 6 4 3 15 13 14 9 12 8 9 3 10 8 4 3 6 4 12 7 10 6 5 7 10 6 6 4 6 9 3
37 33 32 35 29 35 31 18 4 4 3 5 1 8 6 11 8 10 7 8 7 3 3 5 6 7 11 11 11 7 9 9 5 5 6 5 10 11 7 9 4 6 9 9
32 30 27 29 25 18 28 30 7 5 5 3 6 14 6 6 17 12 12 15 8 6 4 7 9 9 5 5 9 6 4 10 5 8 8 5 9 3 4 3 6 2 3 3
28 28 24 23 24 16 15 27 16 5 8 6 2 3 8 4 4 9 6 12 11 4 9 8 4 5 3 5 6 10 10 11 8 4 7 13 4 8 19 6 6 6 4 8
25 25 22 20 20 19 12 19 20 4 4 8 6 5 2 4 5 4 5 9 7 10 5 6 3 3 2 1 3 6 7 7 7 3 5 8 4 18 10 4 7 5 12 18
20 22 20 20 19 18 14 12 20 5 2 7 7 7 4 3 3 6 1 5 7 8 8 5 4 3 1 4 2 2 5 4 1 3 2 7 9 6 5 8 7 20 32 38
16 18 18 19 18 17 14 11 24 2 4 4 8 11 8 9 9 4 4 5 3 6 8 1 5 2 3 4 3 6 3 8 6 11 9 6 2 1 14 14 18 36 48 50
14 14 15 16 18 18 12 13 21 5 3 5 7 9 9 10 8 7 1 4 6 7 6 12 4 4 6 4 7 2 3 4 3 5 4 12 15 24 18 32 38 49 50 56
15 12 12 12 15 17 7 10 26 7 3 5 5 11 6 7 9 10 3 12 15 14 8 8 5 4 6 6 4 5 6 2 5 6 14 15 18 18 27 34 44 52 57 63
16 12 12 10 10 10 3 3 11 23 5 2 4 10 6 7 8 10 12 11 11 9 6 6 3 7 6 3 3 5 9 9 7 10 18 15 26 38 46 50 59 67 71 75
17 14 12 9 8 8 5 3 2 15 17 2 1 3 8 11 7 8 11 11 10 8 6 5 5 5 2 5 3 9 12 19 22 17 16 28 50 61 61 62 76 76 74 75
18 15 12 10 7 6 4 1 1 10 13 3 4 6 7 13 8 4 5 6 6 5 5 4 5 4 4 5 3 6 16 21 27 34 39 51 55 67 74 73 69 73 72 69
18 14 11 9 6 4 3 4 1 10 4 1 4 6 4 13 7 6 5 6 6 6 5 4 5 4 4 1 12 17 23 24 26 30 38 52 63 70 73 71 75 79 80 77
15 11 7 5 6 6 6 5 13 8 5 4 4 7 6 8 6 6 5 4 6 3 5 3 3 3 3 12 15 15 18 25 40 45 51 58 65 78 76 70 79 78 77 85
12 10 7 8 10 7 6 3 2 4 6 7 7 8 3 6 5 6 4 7 2 3 4 1 5 6 15 12 16 20 27 36 42 52 62 68 73 72 75 72 71 76 77 81
12 10 7 10 9 2 3 2 2 5 3 10 7 16 6 5 6 5 3 5 1 4 7 5 3 5 10 12 20 24 33 42 47 53 59 58 64 68 69 79 83 76 78 79
14 9 9 10 5 3 2 3 3 5 8 12 14 13 7 8 6 8 3 5 3 4 1 5 2 8 12 17 28 34 43 47 52 53 53 61 62 69 72 67 69 70 67 66
11 6 7 4 4 5 9 10 5 4 11 16 16 8 9 8 5 10 5 4 5 4 4 4 8 12 15 24 33 41 45 48 52 52 55 59 66 69 58 65 65 61 60 62
5 7 1 8 6 9 9 8 7 2 8 33 31 13 6 6 7 4 6 2 4 3 1 7 6 10 20 30 34 44 52 48 49 49 55 63 62 61 60 60 59 59 59 59
3 4 5 9 13 13 12 16 17 12 12 40 22 13 6 5 7 3 5 4 3 7 6 6 9 19 29 31 40 46 43 44 41 46 55 52 58 61 64 59 60 56 56 49
4 7 6 9 5 9 7 9 11 14 38 26 11 7 6 3 7 5 6 9 7 5 7 7 18 29 26 33 38 37 37 32 35 43 45 52 61 64 63 63 61 60 53 43
5 7 12 18 19 19 9 2 11 33 28 6 9 7 5 8 5 2 6 8 6 8 5 18 24 22 29 30 31 30 26 26 31 32 49 46 57 67 66 67 60 60 56 53
Wind_Direction_500mb
355 354 353 353 354 354 339 106 71 157 153 70 36 176 209 304 289 284 269 104 87 106 78 73 176 141 294 338 150 129 83 132 114 125 296 289 122 129 105 112 261 44 141 279
355 357 357 355 359 7 19 94 99 163 183 142 264 284 276 255 321 323 6 39 61 54 70 96 58 9 332 23 72 133 183 22 53 10 354 349 68 124 116 112 98 201 145 263
357 1 1 358 2 9 11 133 92 147 216 166 137 346 286 299 338 43 51 46 59 83 53 20 90 19 338 11 72 79 110 106 148 194 212 160 171 204 94 113 113 191 231 278
359 3 6 3 5 13 49 46 97 146 204 273 151 120 292 309 10 53 34 51 31 135 96 35 47 358 351 13 12 45 83 135 159 208 219 238 234 222 184 182 186 168 242 213
359 4 8 13 11 11 45 62 58 102 104 30 146 135 211 209 130 38 15 95 20 122 126 172 172 135 11 261 351 54 17 187 135 289 193 196 254 237 248 245 121 278 271 197
359 4 10 14 24 30 52 52 54 22 359 66 102 230 307 343 131 45 102 136 91 66 150 166 311 255 270 273 188 165 124 137 119 240 15 5 306 254 199 148 98 193 201 182
357 3 11 17 20 30 35 27 17 2 324 79 86 343 42 22 348 124 90 67 99 86 266 260 285 297 327 341 334 207 133 100 93 194 42 236 257 332 167 113 75 104 98 96
354 1 9 19 20 15 21 25 29 28 90 352 7 21 13 28 55 54 77 48 51 30 63 59 29 338 73 40 33 25 98 120 106 152 185 305 307 322 27 357 252 107 65 12
348 356 3 14 21 14 4 19 23 40 119 334 293 360 29 94 34 11 39 41 40 85 77 68 113 185 183 311 18 70 65 75 116 131 163 211 232 305 352 140 270 13 357 333
340 348 356 3 12 13 352 5 17 17 88 48 61 80 92 76 88 115 338 348 23 35 66 77 134 248 272 200 29 334 6 8 113 147 196 285 274 299 313 161 236 349 341 313
330 340 345 355 357 1 9 347 360 359 36 79 76 76 82 87 74 134 89 55 355 48 68 116 200 138 248 68 302 146 150 109 213 100 94 268 330 359 41 212 208 311 316 311
312 330 335 348 355 356 359 1 347 231 199 123 98 100 103 68 32 50 69 123 137 147 91 100 117 119 58 135 254 344 338 175 193 169 217 233 230 249 285 232 297 321 315 311
292 315 325 336 348 359 4 15 16 124 157 163 137 111 97 73 59 27 254 178 139 125 109 142 140 112 123 154 247 299 333 151 136 41 253 231 253 300 292 265 274 301 296 298
273 293 312 322 337 353 26 46 32 64 95 114 172 160 124 83 39 21 104 141 129 127 107 87 114 124 179 200 214 168 214 94 159 274 281 287 279 283 309 298 292 298 304 299
261 275 295 300 324 342 2 21 30 33 62 202 153 174 176 102 66 93 93 112 127 127 91 74 174 145 116 43 73 269 191 190 162 233 256 233 268 307 311 305 306 310 306 305
248 258 279 283 298 319 301 301 31 16 17 5 115 190 152 153 126 112 103 89 78 79 97 115 118 111 110 99 205 268 306 283 275 267 289 278 295 305 312 309 311 311 308 303
241 247 266 271 272 288 274 161 78 355 353 353 343 357 149 172 181 166 177 144 104 75 88 78 113 114 60 97 197 280 330 320 301 283 287 293 303 307 312 309 310 314 309 306
233 237 255 256 264 264 182 166 234 329 332 14 110 273 133 167 180 169 175 165 150 68 96 93 74 102 55 297 258 295 311 326 317 317 307 300 307 310 311 310 311 315 314 313
223 224 225 210 163 155 166 261 299 282 218 176 132 146 208 163 119 114 98 88 60 39 79 56 71 331 216 226 271 306 319 310 310 314 312 311 311 315 316 315 317 313 309 310
205 184 167 169 164 162 288 282 226 197 203 214 204 176 198 147 119 68 92 43 94 79 278 16 69 261 263 250 279 299 312 321 324 321 319 320 317 316 317 317 316 313 307 304
172 167 161 150 163 200 187 239 201 187 264 209 204 188 143 117 109 142 61 154 64 93 262 115 332 289 252 276 292 312 324 326 325 323 321 322 321 321 323 318 319 319 316 314
175 166 140 158 173 147 112 249 300 202 224 190 169 167 123 109 102 100 68 110 58 185 163 80 279 255 248 307 324 323 325 327 327 329 329 331 330 329 327 325 322 323 323 324
154 164 157 159 164 77 193 191 241 253 182 164 156 116 124 116 107 81 87 91 204 128 60 223 229 283 314 326 327 325 328 330 329 333 335 336 336 337 343 340 336 332 331 339
179 174 345 170 206 238 197 194 193 218 195 162 150 114 119 115 78 122 103 209 118 78 158 238 253 313 329 328 332 331 333 333 335 340 341 342 346 349 347 342 337 337 338 334
184 188 226 222 242 264 259 260 267 259 178 156 119 84 106 51 99 51 110 118 210 200 224 233 311 334 323 325 333 334 336 338 347 349 348 357 356 356 350 353 351 346 343 340
221 229 265 246 300 288 294 244 219 184 161 143 122 111 87 90 123 131 191 143 218 241 225 301 322 325 326 329 330 333 338 346 355 356 7 8 7 2 358 357 357 1 1 3
234 255 255 268 280 271 286 264 144 155 159 130 122 99 158 121 90 188 180 197 204 219 286 328 336 334 328 329 328 336 347 356 3 5 8 7 13 15 12 10 12 22 31 33
Wind_Speed_850mb
53 47 47 46 37 20 6 3 7 30 27 7 4 5 9 8 11 2 5 4 7 6 5 6 2 6 5 18 11 10 1 10 6 4 9 5 4 7 8 9 7 1 5 11
53 44 46 45 34 21 4 5 11 29 20 5 4 9 8 9 7 8 8 6 8 9 6 8 6 5 10 17 9 9 9 3 5 9 12 7 9 1 10 11 6 6 7 10
51 42 45 44 32 22 5 3 5 8 9 3 9 4 9 6 9 4 9 7 7 8 10 12 6 8 9 15 11 16 10 6 10 12 9 6 5 3 6 10 7 5 10 13
47 41 42 42 32 19 6 5 2 6 6 6 4 1 5 6 6 4 17 8 10 7 6 6 6 5 10 13 21 10 9 6 4 5 4 1 4 6 8 10 10 12 12 11
44 40 41 39 35 15 15 6 4 4 5 0 4 6 6 2 3 5 5 12 6 4 11 5 8 3 2 5 11 7 6 5 5 4 5 7 7 13 13 7 5 8 6 2
41 37 38 39 34 26 11 9 7 2 7 4 6 3 6 4 3 15 13 14 9 12 8 9 3 10 8 4 3 6 4 12 7 10 6 5 7 10 6 6 4 6 9 3
37 33 32 35 29 35 31 18 4 4 3 5 1 8 6 11 8 10 7 8 7 3 3 5 6 7 11 11 11 7 9 9 5 5 6 5 10 11 7 9 4 6 9 9
32 30 27 29 25 18 28 30 7 5 5 3 6 14 6 6 17 12 12 15 8 6 4 7 9 9 5 5 9 6 4 10 5 8 8 5 9 3 4 3 6 2 3 3
28 28 24 23 24 16 15 27 16 5 8 6 2 3 8 4 4 9 6 12 11 4 9 8 4 5 3 5 6 10 10 11 8 4 7 13 4 8 19 6 6 6 4 8
25 25 22 20 20 19 12 19 20 4 4 8 6 5 2 4 5 4 5 9 7 10 5 6 3 3 2 1 3 6 7 7 7 3 5 8 4 18 10 4 7 5 12 18
20 22 20 20 19 18 14 12 20 5 2 7 7 7 4 3 3 6 1 5 7 8 8 5 4 3 1 4 2 2 5 4 1 3 2 7 9 6 5 8 7 20 32 38
16 18 18 19 18 17 14 11 24 2 4 4 8 11 8 9 9 4 4 5 3 6 8 1 5 2 3 4 3 6 3 8 6 11 9 6 2 1 14 14 18 36 48 50
14 14 15 16 18 18 12 13 21 5 3 5 7 9 9 10 8 7 1 4 6 7 6 12 4 4 6 4 7 2 3 4 3 5 4 12 15 24 18 32 38 49 50 56
15 12 12 12 15 17 7 10 26 7 3 5 5 11 6 7 9 10 3 12 15 14 8 8 5 4 6 6 4 5 6 2 5 6 14 15 18 18 27 34 44 52 57 63
16 12 12 10 10 10 3 3 11 23 5 2 4 10 6 7 8 10 12 11 11 9 6 6 3 7 6 3 3 5 9 9 7 10 18 15 26 38 46 50 59 67 71 75
17 14 12 9 8 8 5 3 2 15 17 2 1 3 8 11 7 8 11 11 10 8 6 5 5 5 2 5 3 9 12 19 22 17 16 28 50 61 61 62 76 76 74 75
18 15 12 10 7 6 4 1 1 10 13 3 4 6 7 13 8 4 5 6 6 5 5 4 5 4 4 5 3 6 16 21 27 34 39 51 55 67 74 73 69 73 72 69
18 14 11 9 6 4 3 4 1 10 4 1 4 6 4 13 7 6 5 6 6 6 5 4 5 4 4 1 12 17 23 24 26 30 38 52 63 70 73 71 75 79 80 77
15 11 7 5 6 6 6 5 13 8 5 4 4 7 6 8 6 6 5 4 6 3 5 3 3 3 3 12 15 15 18 25 40 45 51 58 65 78 76 70 79 78 77 85
12 10 7 8 10 7 6 3 2 4 6 7 7 8 3 6 5 6 4 7 2 3 4 1 5 6 15 12 16 20 27 36 42 52 62 68 73 72 75 72 71 76 77 81
12 10 7 10 9 2 3 2 2 5 3 10 7 16 6 5 6 5 3 5 1 4 7 5 3 5 10 12 20 24 33 42 47 53 59 58 64 68 69 79 83 76 78 79
14 9 9 10 5 3 2 3 3 5 8 12 14 13 7 8 6 8 3 5 3 4 1 5 2 8 12 17 28 34 43 47 52 53 53 61 62 69 72 67 69 70 67 66
11 6 7 4 4 5 9 10 5 4 11 16 16 8 9 8 5 10 5 4 5 4 4 4 8 12 15 24 33 41 45 48 52 52 55 59 66 69 58 65 65 61 60 62
5 7 1 8 6 9 9 8 7 2 8 33 31 13 6 6 7 4 6 2 4 3 1 7 6 10 20 30 34 44 52 48 49 49 55 63 62 61 60 60 59 59 59 59
3 4 5 9 13 13 12 16 17 12 12 40 22 13 6 5 7 3 5 4 3 7 6 6 9 19 29 31 40 46 43 44 41 46 55 52 58 61 64 59 60 56 56 49
4 7 6 9 5 9 7 9 11 14 38 26 11 7 6 3 7 5 6 9 7 5 7 7 18 29 26 33 38 37 37 32 35 43 45 52 61 64 63 63 61 60 53 43
5 7 12 18 19 19 9 2 11 33 28 6 9 7 5 8 5 2 6 8 6 8 5 18 24 22 29 30 31 30 26 26 31 32 49 46 57 67 66 67 60 60 56 53
Wind_Direction_850mb
355 354 353 353 354 354 339 106 71 157 153 70 36 176 209 304 289 284 269 104 87 106 78 73 176 141 294 338 150 129 83 132 114 125 296 289 122 129 105 112 261 44 141 279
355 357 357 355 359 7 19 94 99 163 183 142 264 284 276 255 321 323 6 39 61 54 70 96 58 9 332 23 72 133 183 22 53 10 354 349 68 124 116 112 98 201 145 263
357 1 1 358 2 9 11 133 92 147 216 166 137 346 286 299 338 43 51 46 59 83 53 20 90 19 338 11 72 79 110 106 148 194 212 160 171 204 94 113 113 191 231 278
359 3 6 3 5 13 49 46 97 146 204 273 151 120 292 309 10 53 34 51 31 135 96 35 47 358 351 13 12 45 83 135 159 208 219 238 234 222 184 182 186 168 242 213
359 4 8 13 11 11 45 62 58 102 104 30 146 135 211 209 130 38 15 95 20 122 126 172 172 135 11 261 351 54 17 187 135 289 193 196 254 237 248 245 121 278 271 197
359 4 10 14 24 30 52 52 54 22 359 66 102 230 307 343 131 45 102 136 91 66 150 166 311 255 270 273 188 165 124 137 119 240 15 5 306 254 199 148 98 193 201 182
357 3 11 17 20 30 35 27 17 2 324 79 86 343 42 22 348 124 90 67 99 86 266 260 285 297 327 341 334 207 133 100 93 194 42 236 257 332 167 113 75 104 98 96
354 1 9 19 20 15 21 25 29 28 90 352 7 21 13 28 55 54 77 48 51 30 63 59 29 338 73 40 33 25 98 120 106 152 185 305 307 322 27 357 252 107 65 12
348 356 3 14 21 14 4 19 23 40 119 334 293 360 29 94 34 11 39 41 40 85 77 68 113 185 183 311 18 70 65 75 116 131 163 211 232 305 352 140 270 13 357 333
340 348 356 3 12 13 352 5 17 17 88 48 61 80 92 76 88 115 338 348 23 35 66 77 134 248 272 200 29 334 6 8 113 147 196 285 274 299 313 161 236 349 341 313
330 340 345 355 357 1 9 347 360 359 36 79 76 76 82 87 74 134 89 55 355 48 68 116 200 138 248 68 302 146 150 109 213 100 94 268 330 359 41 212 208 311 316 311
312 330 335 348 355 356 359 1 347 231 199 123 98 100 103 68 32 50 69 123 137 147 91 100 117 119 58 135 254 344 338 175 193 169 217 233 230 249 285 232 297 321 315 311
292 315 325 336 348 359 4 15 16 124 157 163 137 111 97 73 59 27 254 178 139 125 109 142 140 112 123 154 247 299 333 151 136 41 253 231 253 300 292 265 274 301 296 298
273 293 312 322 337 353 26 46 32 64 95 114 172 160 124 83 39 21 104 141 129 127 107 87 114 124 179 200 214 168 214 94 159 274 281 287 279 283 309 298 292 298 304 299
261 275 295 300 324 342 2 21 30 33 62 202 153 174 176 102 66 93 93 112 127 127 91 74 174 145 116 43 73 269 191 190 162 233 256 233 268 307 311 305 306 310 306 305
248 258 279 283 298 319 301 301 31 16 17 5 115 190 152 153 126 112 103 89 78 79 97 115 118 111 110 99 205 268 306 283 275 267 289 278 295 305 312 309 311 311 308 303
241 247 266 271 272 288 274 161 78 355 353 353 343 357 149 172 181 166 177 144 104 75 88 78 113 114 60 97 197 280 330 320 301 283 287 293 303 307 312 309 310 314 309 306
233 237 255 256 264 264 182 166 234 329 332 14 110 273 133 167 180 169 175 165 150 68 96 93 74 102 55 297 258 295 311 326 317 317 307 300 307 310 311 310 311 315 314 313
223 224 225 210 163 155 166 261 299 282 218 176 132 146 208 163 119 114 98 88 60 39 79 56 71 331 216 226 271 306 319 310 310 314 312 311 311 315 316 315 317 313 309 310
205 184 167 169 164 162 288 282 226 197 203 214 204 176 198 147 119 68 92 43 94 79 278 16 69 261 263 250 279 299 312 321 324 321 319 320 317 316 317 317 316 313 307 304
172 167 161 150 163 200 187 239 201 187 264 209 204 188 143 117 109 142 61 154 64 93 262 115 332 289 252 276 292 312 324 326 325 323 321 322 321 321 323 318 319 319 316 314
175 166 140 158 173 147 112 249 300 202 224 190 169 167 123 109 102 100 68 110 58 185 163 80 279 255 248 307 324 323 325 327 327 329 329 331 330 329 327 325 322 323 323 324
154 164 157 159 164 77 193 191 241 253 182 164 156 116 124 116 107 81 87 91 204 128 60 223 229 283 314 326 327 325 328 330 329 333 335 336 336 337 343 340 336 332 331 339
179 174 345 170 206 238 197 194 193 218 195 162 150 114 119 115 78 122 103 209 118 78 158 238 253 313 329 328 332 331 333 333 335 340 341 342 346 349 347 342 337 337 338 334
184 188 226 222 242 264 259 260 267 259 178 156 119 84 106 51 99 51 110 118 210 200 224 233 311 334 323 325 333 334 336 338 347 349 348 357 356 356 350 353 351 346 343 340
221 229 265 246 300 288 294 244 219 184 161 143 122 111 87 90 123 131 191 143 218 241 225 301 322 325 326 329 330 333 338 346 355 356 7 8 7 2 358 357 357 1 1 3
234 255 255 268 280 271 286 264 144 155 159 130 122 99 158 121 90 188 180 197 204 219 286 328 336 334 328 329 328 336 347 356 3 5 8 7 13 15 12 10 12 22 31 33